[[{"header":{"parameterUnit":"m.s-1","parameterCategory":1,"la1":30.2991,"la2":30.254,"lo1":-89.0895,"lo2":-89.0444,"dy":0.0017,"dx":0.0017,"nx":28,"ny":28,"refTime":"2023-08-03T09:00:00:Z","depth":0,"parameterNumber":2,"parameterNumberName":"U-component_of_WINDS"},"data":[0,0,0,0,0,0,0,0,0,0,0,0,0,0,0,0,0,0,0,0,0,0,0,0,0,0,0,0,0,0,0,0,0,0,0,0,0,0,0,0,0,0,0,0,0,0,0,0,0,0,0,0,0,0,0,0,0,0,2.1024,2.1024,0,2.1078,2.1078,2.1079,2.1066,2.1065,2.1064,2.1063,2.1117,2.1119,2.1121,0,0,0,0,0,0,0,0,0,0,0,0,0,2.0906,2.0908,2.1024,2.1024,2.1025,2.1078,2.1078,2.1079,2.1066,2.1065,2.1064,2.1063,2.1116,2.1119,2.1122,0,0,0,0,0,0,0,0,0,0,0,0,0,2.0958,2.0909,2.1024,2.1025,2.1026,2.1077,2.1078,2.1079,2.1067,2.1065,2.1063,2.1062,2.1115,2.1119,2.1122,2.1175,0,0,2.1133,2.1135,0,0,0,0,0,0,0,0,2.0955,2.0963,2.1024,2.1025,2.1026,2.1064,2.1057,2.1111,2.1067,2.1051,2.1063,2.1061,2.11,2.1105,2.1118,2.1178,2.118,2.1133,2.1136,2.1137,2.1138,0,0,0,0,0,0,0,2.0952,2.096,2.1045,2.1025,2.1026,2.1022,2.1028,2.1067,2.1084,2.1052,2.1051,2.1058,2.11,2.1115,2.112,2.1181,2.1133,2.1136,2.1139,2.114,2.1283,2.1285,0,0,0,0,0,0,2.0948,2.0957,2.1043,2.1047,2.0986,2.1025,2.1032,2.1053,2.1083,2.1086,2.1059,2.1057,2.111,2.1115,2.1121,2.1183,2.1137,2.114,2.1142,2.1282,2.1284,2.1285,0,0,0,0,0,0,2.0945,2.0956,2.1041,2.1002,2.1012,2.1029,2.1053,2.1055,2.1069,2.1089,2.1091,2.1071,2.1109,2.1116,2.1161,2.1185,2.1142,2.1145,2.128,2.1282,2.1284,2.1309,0,0,0,0,0,0,2.0942,2.0955,2.0976,2.1002,2.1015,2.1081,2.1055,2.1057,2.1076,2.1074,2.1101,2.1103,2.1108,2.1156,2.1165,2.1189,2.1148,2.1278,2.1281,2.1284,2.1306,2.1312,2.1317,0,0,0,0,0,2.0938,2.0981,2.0977,2.0988,2.1042,2.1083,2.1089,2.1094,2.1078,2.1098,2.111,2.1103,2.1181,2.1161,2.1171,2.1196,2.1276,2.128,2.1283,2.1304,2.1311,2.1317,0,0,0,0,0,0,2.0957,2.0985,2.0981,2.1034,2.1056,2.108,2.1107,2.1102,2.1129,2.1126,2.113,2.1136,2.1181,2.1194,2.117,2.1248,2.1226,2.1232,2.1238,2.1245,2.125,2.1246,2.1151,0,0,0,0,0,2.0968,2.0999,2.1022,2.1066,2.1077,2.109,2.1108,2.111,2.1133,2.1142,2.1157,2.1179,2.1208,2.1228,2.1256,2.1308,2.1312,2.133,2.1336,2.134,2.1345,2.1371,2.1378,2.1298,2.1298,2.1297,0,0,2.0989,2.1008,2.1028,2.107,2.1088,2.1119,2.1098,2.1133,2.1156,2.1147,2.119,2.1202,2.1226,2.1274,2.1296,2.1286,2.1368,2.1345,2.1348,2.1351,2.1375,2.1383,2.1389,2.13,2.13,2.1299,0,0,2.1045,2.1063,2.1101,2.1119,2.1145,2.1153,2.1162,2.1187,2.1194,2.1238,2.1231,2.1258,2.1309,2.1326,2.1341,2.1401,2.1394,2.141,2.1438,2.1463,2.147,2.1475,2.1494,2.1501,2.1415,2.1415,2.1415,0,2.1068,2.1116,2.1121,2.1156,2.1174,2.1167,2.1205,2.1221,2.1255,2.1267,2.1255,2.1318,2.1334,2.1385,2.1399,2.1413,2.1421,2.1407,2.1468,2.1474,2.1479,2.1497,2.1505,2.1417,2.1416,2.1416,2.1416,0,2.1142,2.1176,2.1203,2.1236,2.1257,2.1293,2.1302,2.1322,2.1322,2.133,2.1373,2.1392,2.1423,2.1435,2.1436,2.1485,2.1478,2.1467,2.1445,2.1488,2.1505,2.1513,2.1419,2.1418,2.1418,2.1418,0,0,2.1211,2.1245,2.1255,2.1269,2.1297,2.1322,2.1357,2.1387,2.1403,2.1427,2.1454,2.1497,2.1487,2.1504,2.1506,2.1528,2.1571,2.1515,2.1515,2.1523,2.1624,2.1631,2.1639,2.1567,2.1569,2.157,2.1622,0,2.1267,2.1329,2.1334,2.1389,2.1418,2.1412,2.1441,2.1461,2.147,2.1495,2.1504,2.1534,2.1519,2.1529,2.1551,2.1561,2.1591,2.1558,2.1591,2.1593,2.1584,2.1648,2.1656,2.1703,2.1628,2.163,2.163,0,2.1341,2.1366,2.1424,2.1445,2.1458,2.1485,2.1511,2.1536,2.1558,2.1562,2.1581,2.1579,2.1613,2.1591,2.1636,2.1614,2.1627,2.1635,2.1636,2.1638,2.1613,2.165,2.1719,2.1725,2.1641,2.1641,2.164,0,2.1382,2.1431,2.1471,2.1483,2.151,2.1528,2.154,2.156,2.1577,2.1601,2.1611,2.1639,2.1653,2.1673,2.1678,2.1662,2.1723,2.1702,2.1726,2.1726,2.1738,2.1737,2.1809,2.175,2.175,2.175,2.175,0,2.1443,2.1478,2.1489,2.1514,2.1552,2.1557,2.1594,2.1605,2.1622,2.1647,2.1644,2.1668,2.1674,2.1698,2.1703,2.1738,2.1746,2.1749,2.1749,2.1748,2.1747,2.1756,2.1752,2.1752,2.1752,2.1751,2.1751,0,2.1495,2.1505,2.1547,2.1569,2.1575,2.1602,2.162,2.1643,2.1651,2.1683,2.169,2.1702,2.1731,2.1738,2.1772,2.1775,2.1816,2.1815,2.1809,2.1808,2.1831,2.1828,2.191,2.192,2.1857,2.1857,2.1858,0,2.1532,2.1559,2.1583,2.16,2.1613,2.164,2.1657,2.1662,2.168,2.1705,2.1724,2.1752,2.1775,2.182,2.1831,2.1857,2.1854,2.1881,2.1858,2.1855,2.1852,2.1849,2.1851,2.1885,2.1885,2.1886,2.1886,0,2.1597,2.1599,2.1625,2.1651,2.1672,2.1693,2.1713,2.1726,2.1734,2.1754,2.1783,2.18,2.1834,2.1861,2.1887,2.1898,2.1893,2.1894,2.19,2.1898,2.1893,2.1894,2.1819,2.1892,2.1891,2.1891,2.189,2.189,2.1641,2.1663,2.1683,2.1711,2.1726,2.1745,2.1766,2.1777,2.1801,2.1829,2.1831,2.1861,2.188,2.1913,2.1926,2.1949,2.1941,2.1951,2.1953,2.1955,2.1956,2.1891,2.1954,2.1954,2.1954,2.1954,2.1954,0,2.1703,2.1715,2.1741,2.1768,2.1789,2.1784,2.1805,2.1823,2.185,2.1868,2.189,2.1922,2.1947,2.196,2.1986,2.2001,2.2,2.2008,2.2006,2.2008,2.1963,2.1954,2.2009,2.2009,2.2008,2.2008,2.2008,2.2008,2.1738,2.1774,2.1779,2.1823,2.1835,2.1865,2.1877,2.1893,2.1908,2.1943,2.1965,2.1973,2.1989,2.2015,2.2037,2.204,2.2049,2.2058,2.2059,2.2017,2.2011,2.2006,2.1997,2.206,2.206,2.2102,2.2102,2.2102]},{"header":{"parameterUnit":"m.s-1","parameterCategory":1,"la1":30.2991,"la2":30.254,"lo1":-89.0895,"lo2":-89.0444,"dy":0.0017,"dx":0.0017,"nx":28,"ny":28,"refTime":"2023-08-03T09:00:00:Z","depth":0,"parameterNumber":3,"parameterNumberName":"V-component_of_WINDS"},"data":[0,0,0,0,0,0,0,0,0,0,0,0,0,0,0,0,0,0,0,0,0,0,0,0,0,0,0,0,0,0,0,0,0,0,0,0,0,0,0,0,0,0,0,0,0,0,0,0,0,0,0,0,0,0,0,0,0,0,5.766,5.766,0,5.7675,5.7675,5.7675,5.759,5.7587,5.7585,5.7582,5.7595,5.7598,5.76,0,0,0,0,0,0,0,0,0,0,0,0,0,5.7555,5.7557,5.766,5.766,5.766,5.7675,5.7675,5.7675,5.759,5.7587,5.7584,5.7581,5.7594,5.7597,5.76,0,0,0,0,0,0,0,0,0,0,0,0,0,5.7588,5.7558,5.766,5.762,5.7616,5.7675,5.7675,5.7675,5.7591,5.7587,5.7583,5.758,5.7593,5.7597,5.7601,5.7698,0,0,5.7613,5.7614,0,0,0,0,0,0,0,0,5.7586,5.7592,5.7625,5.7623,5.7619,5.7627,5.7642,5.7683,5.7591,5.76,5.7582,5.7578,5.7608,5.7611,5.7621,5.7699,5.7699,5.7613,5.7616,5.7617,5.7618,0,0,0,0,0,0,0,5.7584,5.7591,5.7666,5.7626,5.7622,5.76,5.76,5.765,5.7624,5.7599,5.7593,5.7596,5.7606,5.7618,5.7621,5.7699,5.7613,5.7617,5.7619,5.762,5.7854,5.7858,0,0,0,0,0,0,5.7588,5.759,5.7665,5.7666,5.7593,5.7605,5.7605,5.7628,5.7624,5.762,5.7599,5.7592,5.7613,5.7617,5.7621,5.7733,5.7617,5.7621,5.7623,5.785,5.7855,5.7859,0,0,0,0,0,0,5.7586,5.7595,5.7665,5.7626,5.7633,5.761,5.7636,5.763,5.7642,5.7624,5.7619,5.7616,5.761,5.7616,5.7679,5.7732,5.7623,5.7626,5.7846,5.7852,5.7857,5.7958,0,0,0,0,0,0,5.7583,5.7595,5.7633,5.7628,5.7636,5.7724,5.7639,5.7633,5.7649,5.764,5.7638,5.7635,5.7608,5.7674,5.7683,5.7735,5.7629,5.7841,5.7848,5.7855,5.7949,5.7966,5.798,0,0,0,0,0,5.758,5.766,5.7635,5.7645,5.7682,5.7727,5.7731,5.7699,5.7654,5.769,5.7679,5.7635,5.7725,5.7681,5.7691,5.7745,5.7837,5.7846,5.7855,5.7942,5.7963,5.798,0,0,0,0,0,0,5.7671,5.7659,5.7631,5.7712,5.7721,5.7712,5.7758,5.7722,5.7744,5.7734,5.7693,5.7693,5.7763,5.7761,5.7712,5.7838,5.7773,5.7784,5.7836,5.7856,5.7871,5.7869,5.7632,0,0,0,0,0,5.7701,5.7739,5.7726,5.7799,5.7805,5.7781,5.7799,5.7774,5.7781,5.7784,5.7777,5.7785,5.7815,5.7835,5.7862,5.7949,5.7946,5.7991,5.8007,5.802,5.8029,5.8073,5.8092,5.7888,5.7888,5.7888,0,0,5.7763,5.7761,5.7787,5.7818,5.7822,5.786,5.7785,5.783,5.7857,5.7791,5.785,5.7845,5.7851,5.7926,5.7959,5.7926,5.8085,5.8031,5.8041,5.8043,5.8083,5.8103,5.812,5.7894,5.7893,5.7892,0,0,5.7895,5.7898,5.7958,5.7964,5.7971,5.7954,5.7969,5.7965,5.7959,5.8018,5.7968,5.8001,5.8054,5.8059,5.8069,5.8203,5.8163,5.8213,5.8293,5.8336,5.8352,5.8366,5.8412,5.8429,5.8223,5.8223,5.8223,0,5.797,5.8028,5.7994,5.8042,5.8055,5.7998,5.8057,5.8064,5.8079,5.809,5.8053,5.8117,5.8118,5.8192,5.8225,5.8236,5.8249,5.8212,5.8353,5.8366,5.8379,5.8422,5.8439,5.8229,5.8228,5.8228,5.8227,0,5.8119,5.816,5.8207,5.8224,5.8243,5.8297,5.827,5.8293,5.8266,5.8253,5.8313,5.8311,5.8335,5.8352,5.8326,5.8423,5.8402,5.836,5.8294,5.8405,5.8444,5.8461,5.8237,5.8235,5.8234,5.8232,0,0,5.8308,5.8305,5.8323,5.8328,5.8332,5.8362,5.8412,5.8437,5.8457,5.8469,5.8509,5.8555,5.8516,5.8528,5.8502,5.854,5.8643,5.8493,5.8493,5.8519,5.8747,5.8777,5.8797,5.8618,5.8621,5.8623,5.8746,0,5.8435,5.8521,5.8492,5.8579,5.8615,5.856,5.8604,5.861,5.8599,5.8627,5.8614,5.8647,5.8594,5.86,5.8636,5.8623,5.8688,5.8614,5.8652,5.8654,5.865,5.8817,5.8849,5.8965,5.8761,5.8764,5.8766,0,5.8595,5.8613,5.8704,5.87,5.8714,5.8754,5.8772,5.8801,5.8806,5.8795,5.8808,5.8774,5.8822,5.8758,5.8822,5.8772,5.8786,5.8783,5.8786,5.8787,5.8715,5.882,5.9002,5.9018,5.879,5.8788,5.8786,0,5.872,5.8769,5.8828,5.8836,5.8833,5.8862,5.8862,5.8863,5.8879,5.8896,5.8906,5.8928,5.894,5.8957,5.893,5.8886,5.8997,5.8931,5.8988,5.8989,5.9012,5.901,5.9196,5.9025,5.9025,5.9025,5.9024,0,5.8864,5.8921,5.8885,5.8921,5.8983,5.8949,5.901,5.9004,5.9006,5.904,5.8995,5.9027,5.899,5.9018,5.8997,5.9052,5.9059,5.905,5.9043,5.9053,5.9054,5.906,5.905,5.9029,5.9028,5.9027,5.9027,0,5.9014,5.8992,5.9054,5.9046,5.9045,5.9091,5.9083,5.9116,5.9102,5.9145,5.9153,5.9131,5.9162,5.9137,5.9168,5.9153,5.9226,5.9209,5.9224,5.9218,5.9276,5.927,5.947,5.9493,5.931,5.9312,5.9313,0,5.9106,5.9148,5.9145,5.9164,5.9167,5.9199,5.9215,5.9183,5.9201,5.921,5.9242,5.9269,5.9289,5.9341,5.9327,5.935,5.9332,5.94,5.9334,5.9342,5.933,5.9327,5.933,5.9413,5.9415,5.9417,5.9418,0,5.927,5.9257,5.9282,5.9304,5.9324,5.9339,5.9351,5.9369,5.9336,5.9359,5.939,5.9406,5.9436,5.9464,5.9482,5.948,5.9443,5.9439,5.9453,5.9462,5.9468,5.9463,5.9258,5.9434,5.9432,5.9431,5.943,5.943,5.9392,5.9427,5.943,5.9459,5.9464,5.9475,5.9505,5.9495,5.9521,5.9543,5.9523,5.956,5.9563,5.9583,5.9587,5.9615,5.9586,5.9607,5.9612,5.9617,5.9624,5.9466,5.9618,5.9618,5.9617,5.9617,5.9617,0,5.9552,5.9551,5.9579,5.9596,5.9618,5.9583,5.9593,5.9614,5.9648,5.9654,5.9674,5.971,5.9736,5.9724,5.9747,5.9771,5.9755,5.9778,5.9775,5.9774,5.9649,5.9634,5.9791,5.9791,5.9791,5.9791,5.9791,5.9791,5.9638,5.9694,5.9681,5.9739,5.9737,5.9773,5.9782,5.9792,5.9796,5.9838,5.9859,5.9852,5.985,5.9872,5.9894,5.989,5.9899,5.9928,5.9918,5.9801,5.9784,5.9767,5.9752,5.9931,5.9932,6.004,6.0041,6.0042]}]]